{"data":{"norad_id":64536,"epoch":"2026-09-21T20:10:13.649664Z","epoch_age_seconds":65750,"freshness":"FRESH","line1":"1 64536U 25135J   26264.84043576  .00001808  00000+0  86158-4 0  9995","line2":"2 64536  97.4721  18.2060 0003696 187.7618 172.3561 15.20397899 69503","mean_motion":15.20397899,"eccentricity":0.0003696,"inclination_deg":97.4721,"raan_deg":18.206,"arg_perigee_deg":187.7618,"mean_anomaly_deg":172.3561,"bstar":8.6158e-5,"rev_number":6950,"period_min":94.712048796379,"perigee_km":502.09562971427,"apogee_km":507.18337810596,"semimajor_km":6882.7765039101,"source":"CELESTRAK","updated_at":"2026-09-22T09:00:29.840172Z"}}